FW2837 Weather Reports


time (UTC)temp
C
wind
direction
speed
KPH
gust
KPH
rain 1hr
cm
rain 24hr
cm
rain mn
cm
humidity
%
barometer
mb
20260504045803 4 135 0.0 0.0 0.00 0.00 0.00 86 1013.2
20260504044502 4 270 0.0 0.0 0.00 0.00 0.00 86 1013.5
20260504043402 5 270 0.0 0.0 0.00 0.00 0.00 86 1013.2
20260504041103 5 90 0.0 0.0 0.00 0.00 0.00 86 1012.9
20260504034902 4 68 0.0 0.0 0.00 0.00 0.00 83 1012.2
20260504032603 5 113 0.0 0.0 0.00 0.00 0.00 78 1011.9
20260504030404 5 203 0.0 0.0 0.00 0.00 0.00 75 1011.9
20260504025304 6 90 0.0 0.0 0.00 0.00 0.00 73 1011.2
20260504024103 6 113 0.0 0.0 0.00 0.00 0.00 74 1011.5
20260504022902 6 90 0.0 0.0 0.00 0.00 0.00 73 1011.9
20260504021802 6 68 0.0 0.0 0.00 0.00 0.00 71 1011.5
20260504020704 7 158 0.0 0.0 0.00 0.00 0.00 70 1011.5
20260504015603 7 23 0.0 0.0 0.00 0.00 0.00 68 1011.5
20260504014402 7 90 0.0 0.0 0.00 0.00 0.00 69 1011.5
20260504013303 8 113 0.0 0.0 0.00 0.00 0.00 66 1011.9
20260504012203 8 68 0.0 0.0 0.00 0.00 0.00 65 1011.5
20260504011103 9 225 0.0 0.0 0.00 0.00 0.00 61 1011.9
20260504010004 9 113 0.0 0.0 0.00 0.00 0.00 61 1011.2
20260504003803 11 113 0.0 0.0 0.00 0.00 0.00 55 1011.2
20260504001702 12 113 0.0 0.0 0.00 0.00 0.00 50 1010.8
20260503235602 13 113 0.0 3.2 0.00 0.00 0.00 45 1010.8
20260503233402 16 180 8.0 8.0 0.00 0.00 0.00 40 1010.5
20260503232305 16 90 1.6 9.7 0.00 0.00 0.00 40 1010.2
20260503224003 17 158 9.7 19.3 0.00 0.00 0.00 35 1010.2
20260503222902 18 158 8.0 19.3 0.00 0.00 0.00 34 1010.5
20260503221803 18 90 3.2 12.9 0.00 0.00 0.00 35 1010.2
20260503215603 18 203 8.0 12.9 0.00 0.00 0.00 34 1011.2
20260503214602 18 90 9.7 19.3 0.00 0.00 0.00 35 1010.5
20260503213502 19 45 3.2 12.9 0.00 0.00 0.00 35 1010.5
20260503211302 20 135 4.8 9.7 0.00 0.00 0.00 32 1010.5
20260503210204 18 158 4.8 16.1 0.00 0.00 0.00 34 1010.5
20260503205103 18 180 11.3 14.5 0.00 0.00 0.00 32 1010.8
20260503204003 19 158 9.7 16.1 0.00 0.00 0.00 32 1010.8
20260503202903 18 225 14.5 14.5 0.00 0.00 0.00 32 1010.8
20260503201703 19 113 6.4 14.5 0.00 0.00 0.00 35 1011.2
20260503200604 20 135 8.0 11.3 0.00 0.00 0.00 34 1010.8
20260503195603 18 203 8.0 12.9 0.00 0.00 0.00 35 1011.2
20260503193402 17 180 6.4 19.3 0.00 0.00 0.00 35 1011.5
20260503192305 18 203 6.4 16.1 0.00 0.00 0.00 37 1011.2
20260503191302 18 225 9.7 22.5 0.00 0.00 0.00 35 1011.9
20260503190203 18 180 9.7 19.3 0.00 0.00 0.00 35 1011.9
20260503185203 17 180 4.8 30.6 0.00 0.00 0.00 39 1011.5
20260503184103 18 203 12.9 14.5 0.00 0.00 0.00 35 1012.2
20260503183002 19 225 12.9 12.9 0.00 0.00 0.00 35 1012.2
20260503181902 16 90 11.3 12.9 0.00 0.00 0.00 37 1012.2
20260503180807 17 158 6.4 19.3 0.00 0.00 0.00 40 1012.2
20260503175703 16 270 9.7 17.7 0.00 0.00 0.00 37 1012.5
20260503173503 17 338 11.3 16.1 0.00 0.00 0.00 37 1012.5
20260503170203 16 90 4.8 12.9 0.00 0.00 0.00 39 1012.5
20260503130502 10 293 14.5 16.1 0.00 0.00 0.00 55 1014.2
20260503090403 5 113 3.2 8.0 0.00 0.00 0.00 74 1011.9
20260503072603 6 180 4.8 9.7 0.00 0.00 0.00 74 1011.2
20260503071502 6 68 0.0 4.8 0.00 0.00 0.00 73 1011.2